KUIPER-00080

Last updated on Sat Aug 16 2025 00:02:06 GMT+0000 (Coordinated Universal Time)

1 64827U 25151M 25227.58336806 .00034074 00000+0 11563-2 0 9993 2 64827 51.8799 141.5658 0002873 279.1065 324.5417 15.30197725 4794
UTC large
Height (km)
Speed (km/s)
/
Latitude / Longitude
Inclination (degrees)
Orbital Period (minutes)
Azimuth
Elevation
Range (km)
Doppler Factor

Next 0 passes for location: London (51.5072 / 0.1276)

Sorry there are no passes over London.
KUIPER-00080